Date String (YYYY-MM-DD hh:mm:ss) UTC,Instrument flags,Ambient pressure (hPa),Sample flow (lpm),Bypass flow (lpm),Sample temperature (°C),Ambient temperature (°C),ASC tube jacket temperature (°C),LED temperature (°C),Box temperature (°C),Sample RH (%),Span deviation,Mass concentration (μg/m³),Mass concentration (μg/m³),Mass concentration (μg/m³)
DateTimeUTC,F1_M11,P_M11,Q1_M11,Q2_M11,T1_M11,T2_M11,T3_M11,T4_M11,T5_M11,U1_M11,ZSPAN_M11,X0_M11,X2_M11,X1_M11
2022-04-14 02:00:00,,0821.2,5.00,0.00,22.0,21.0,00.0,31.0,23.6,10.4,0000.0,0003.72,0001.78,0001.04
2022-04-14 02:01:00,,0821.2,5.00,0.00,21.9,21.0,00.0,31.0,23.6,10.4,0000.0,0003.62,0001.79,0001.05
2022-04-14 02:02:00,,0821.2,4.99,0.00,21.9,21.0,00.0,31.0,23.7,10.5,0000.0,0003.61,0001.80,0001.07
2022-04-14 02:03:00,,0821.2,4.99,0.00,21.9,20.9,00.0,31.0,23.7,10.5,0000.0,0003.68,0001.84,0001.09
2022-04-14 02:04:00,,0821.2,5.00,0.00,21.9,21.0,00.0,31.0,23.6,10.4,0000.0,0003.81,0001.85,0001.08
2022-04-14 02:05:00,,0821.2,5.01,0.00,21.9,21.0,00.0,31.0,23.6,10.4,0000.0,0003.77,0001.85,0001.09
2022-04-14 02:06:00,,0821.2,4.99,0.00,21.9,20.9,00.0,31.0,23.6,10.5,0000.0,0003.77,0001.83,0001.08
2022-04-14 02:07:00,,0821.3,4.99,0.00,21.9,20.9,00.0,31.0,23.6,10.5,0000.0,0003.48,0001.86,0001.09
2022-04-14 02:08:00,,0821.3,5.01,0.00,21.9,20.9,00.0,30.9,23.6,10.5,0000.0,0003.80,0001.89,0001.11
2022-04-14 02:09:00,,0821.3,4.99,0.00,21.9,20.9,00.0,30.9,23.6,10.6,0000.0,0004.39,0001.88,0001.11
2022-04-14 02:10:00,,0821.4,4.99,0.00,21.9,21.0,00.0,30.9,23.6,10.5,0000.0,0004.40,0001.81,0001.10
2022-04-14 02:11:00,,0821.3,4.99,0.00,21.9,21.0,00.0,30.9,23.6,10.5,0000.0,0005.00,0001.79,0001.09
2022-04-14 02:12:00,,0821.3,5.02,0.00,21.9,21.0,00.0,30.9,23.6,10.4,0000.0,0005.03,0001.77,0001.08
2022-04-14 02:13:00,,0821.3,5.00,0.00,21.9,21.0,00.0,30.9,23.6,10.2,0000.0,0004.99,0001.74,0001.09
2022-04-14 02:14:00,,0821.4,5.00,0.00,21.9,21.0,00.0,30.9,23.6,10.1,0000.0,0005.46,0001.78,0001.09
2022-04-14 02:15:00,,0821.3,5.00,0.00,21.9,21.4,00.0,30.9,23.7,10.3,0000.0,0005.58,0001.84,0001.10
2022-04-14 02:16:00,,0821.4,4.99,0.00,22.0,22.2,00.0,31.0,24.0,10.4,0000.0,0005.58,0001.87,0001.13
2022-04-14 02:17:00,,0821.4,5.00,0.00,22.2,23.0,00.0,31.0,24.2,10.4,0000.0,0005.58,0001.89,0001.16
2022-04-14 02:18:00,,0821.4,5.00,0.00,22.3,23.0,00.0,31.1,24.3,10.3,0000.0,0005.62,0001.92,0001.18
2022-04-14 02:19:00,,0821.4,4.99,0.00,22.3,22.7,00.0,31.1,24.2,10.2,0000.0,0005.67,0001.96,0001.20
2022-04-14 02:20:00,,0821.4,4.99,0.00,22.3,22.5,00.0,31.1,24.2,10.1,0000.0,0004.92,0001.96,0001.22
2022-04-14 02:21:00,,0821.6,5.01,0.00,22.3,22.2,00.0,31.1,24.1,10.0,0000.0,0004.90,0001.97,0001.24
2022-04-14 02:22:00,,0821.5,5.00,0.00,22.3,22.1,00.0,31.1,24.1,10.0,0000.0,0004.15,0001.98,0001.26
2022-04-14 02:23:00,,0821.5,5.00,0.00,22.3,21.9,00.0,31.1,24.1,09.9,0000.0,0004.17,0002.03,0001.26
2022-04-14 02:24:00,,0821.5,5.00,0.00,22.2,21.8,00.0,31.1,24.0,09.9,0000.0,0004.18,0002.05,0001.25
2022-04-14 02:25:00,,0821.6,5.00,0.00,22.2,21.7,00.0,31.2,24.0,09.9,0000.0,0003.97,0002.06,0001.25
2022-04-14 02:26:00,,0821.6,5.00,0.00,22.2,21.6,00.0,31.2,24.0,09.8,0000.0,0003.67,0002.00,0001.24
2022-04-14 02:27:00,,0821.7,5.00,0.00,22.2,21.6,00.0,31.2,24.0,09.6,0000.0,0003.50,0001.97,0001.23
2022-04-14 02:28:00,,0821.6,5.00,0.00,22.2,21.5,00.0,31.2,24.0,09.6,0000.0,0003.63,0002.01,0001.21
2022-04-14 02:29:00,,0821.7,5.00,0.00,22.2,21.5,00.0,31.2,24.0,09.6,0000.0,0003.75,0002.00,0001.20
2022-04-14 02:30:00,,0821.6,5.00,0.00,22.2,21.5,00.0,31.2,24.0,09.6,0000.0,0003.80,0002.01,0001.19
2022-04-14 02:31:00,,0821.7,4.99,0.00,22.2,21.4,00.0,31.2,24.0,09.6,0000.0,0003.73,0001.98,0001.15
2022-04-14 02:32:00,,0821.6,5.01,0.00,22.2,21.4,00.0,31.2,24.0,09.7,0000.0,0003.72,0001.95,0001.13
2022-04-14 02:33:00,,0821.6,5.00,0.00,22.2,21.4,00.0,31.2,24.0,09.7,0000.0,0004.67,0001.95,0001.13
2022-04-14 02:34:00,,0821.6,5.00,0.00,22.2,21.4,00.0,31.2,24.0,09.5,0000.0,0005.49,0001.93,0001.13
2022-04-14 02:35:00,,0821.7,5.00,0.00,22.2,21.4,00.0,31.2,24.0,09.5,0000.0,0005.73,0001.99,0001.14
2022-04-14 02:36:00,,0821.8,5.00,0.00,22.2,21.3,00.0,31.2,23.9,09.6,0000.0,0005.94,0002.01,0001.14
2022-04-14 02:37:00,,0821.9,5.00,0.00,22.2,21.3,00.0,31.2,23.9,09.7,0000.0,0005.85,0001.97,0001.15
2022-04-14 02:38:00,,0821.9,5.00,0.00,22.2,21.3,00.0,31.2,23.9,09.7,0000.0,0006.21,0002.07,0001.22
2022-04-14 02:39:00,,0821.9,5.00,0.00,22.2,21.3,00.0,31.2,23.9,09.6,0000.0,0006.34,0002.08,0001.27
2022-04-14 02:40:00,,0821.8,4.99,0.00,22.2,21.2,00.0,31.1,23.9,09.6,0000.0,0006.49,0002.09,0001.28
2022-04-14 02:41:00,,0821.8,4.99,0.00,22.1,21.2,00.0,31.1,23.9,09.4,0000.0,0006.79,0002.09,0001.29
2022-04-14 02:42:00,,0821.8,5.00,0.00,22.1,21.2,00.0,31.1,23.9,09.3,0000.0,0007.46,0002.16,0001.31
2022-04-14 02:43:00,,0821.8,4.99,0.00,22.1,21.2,00.0,31.1,23.9,09.6,0000.0,0007.76,0002.20,0001.34
2022-04-14 02:44:00,,0821.8,5.00,0.00,22.1,21.2,00.0,31.1,23.8,09.7,0000.0,0007.54,0002.26,0001.36
2022-04-14 02:45:00,,0821.8,5.01,0.00,22.1,21.1,00.0,31.1,23.8,09.5,0000.0,0006.91,0002.32,0001.38
2022-04-14 02:46:00,,0821.8,5.00,0.00,22.0,21.0,00.0,31.1,23.7,09.6,0000.0,0007.11,0002.29,0001.37
2022-04-14 02:47:00,,0822.1,5.00,0.00,22.0,21.0,00.0,31.1,23.7,09.7,0000.0,0006.95,0002.20,0001.38
2022-04-14 02:48:00,,0822.0,4.99,0.00,22.0,21.0,00.0,31.1,23.7,09.6,0000.0,0007.00,0002.21,0001.37
2022-04-14 02:49:00,,0822.0,5.01,0.00,22.0,21.0,00.0,31.1,23.7,09.4,0000.0,0006.84,0002.14,0001.30
2022-04-14 02:50:00,,0821.8,5.00,0.00,22.0,21.0,00.0,31.0,23.7,09.4,0000.0,0007.31,0002.09,0001.24
2022-04-14 02:51:00,,0821.9,5.00,0.00,22.0,21.0,00.0,31.0,23.7,09.3,0000.0,0007.13,0002.08,0001.22
2022-04-14 02:52:00,,0822.0,5.00,0.00,22.0,21.1,00.0,31.0,23.7,09.3,0000.0,0006.74,0002.05,0001.20
2022-04-14 02:53:00,,0822.0,4.99,0.00,22.0,21.1,00.0,31.0,23.7,09.4,0000.0,0005.84,0001.97,0001.18
2022-04-14 02:54:00,,0822.0,4.99,0.00,22.0,21.1,00.0,31.0,23.7,09.8,0000.0,0005.48,0002.00,0001.15
2022-04-14 02:55:00,,0822.0,5.00,0.00,22.0,21.5,00.0,31.0,23.8,10.0,0000.0,0005.95,0002.05,0001.14
2022-04-14 02:56:00,,0822.0,5.02,0.00,22.1,22.3,00.0,31.1,24.0,10.1,0000.0,0006.25,0002.02,0001.13
2022-04-14 02:57:00,,0821.9,4.99,0.00,22.3,23.1,00.0,31.1,24.3,10.1,0000.0,0005.87,0002.02,0001.13
2022-04-14 02:58:00,,0821.9,4.99,0.00,22.4,23.0,00.0,31.1,24.4,10.0,0000.0,0005.88,0002.07,0001.13
2022-04-14 02:59:00,,0821.8,5.00,0.00,22.4,22.8,00.0,31.2,24.4,09.9,0000.0,0006.03,0002.08,0001.14
